Location: Leipzig
(51.3203°N, 12.3761°E)
Time: 21:32:18
(UTC+01:00)

ISS - Pass Details

Date: 03 December 2021
Orbit: 413 x 422 km, 51.6° (Epoch: 27 January)

Event Time Altitude Azimuth Distance (km) Brightness Sun altitude
Rises 16:56:57 0° 278° (W) 2,390 1.1 -7.8°
Reaches altitude 10° 16:59:04 10° 278° (W) 1,521 0.0 -8.1°
Maximum altitude 17:02:29 89° 189° (S) 431 -3.7 -8.6°
Drops below altitude 10° 17:05:54 10° 100° (E) 1,512 -1.4 -9.1°
Enters shadow 17:06:08 - 100° (E) 1,610 -1.3 -9.1°
